Time,TemperatureF,DewpointF,PressureIn,WindDirection,WindDirectionDegrees,WindSpeedMPH,WindSpeedGustMPH,Humidity,HourlyPrecipIn,Conditions,Clouds,dailyrainin,SoftwareType,DateUTC
2013-08-05 00:00:00,53.6,50.7,30.15,NW,321,0.0,0.0,90,0.00,,,0.00,Wunderground v.1.15,2013-08-05 04:00:00,
2013-08-05 00:05:00,53.3,50.4,30.15,NW,321,0.0,0.0,90,0.00,,,0.00,Wunderground v.1.15,2013-08-05 04:05:00,
2013-08-05 00:10:00,53.1,50.2,30.16,North,359,0.0,0.0,90,0.00,,,0.00,Wunderground v.1.15,2013-08-05 04:10:00,
2013-08-05 00:14:00,53.2,50.3,30.15,North,358,0.0,0.0,90,0.00,,,0.00,Wunderground v.1.15,2013-08-05 04:14:00,
2013-08-05 00:20:00,52.8,50.2,30.16,North,359,0.0,0.0,91,0.00,,,0.00,Wunderground v.1.15,2013-08-05 04:20:00,
2013-08-05 00:29:00,52.7,50.4,30.15,North,354,0.0,0.0,92,0.00,,,0.00,Wunderground v.1.15,2013-08-05 04:29:00,
2013-08-05 00:35:00,52.5,49.9,30.16,North,354,0.0,0.0,91,0.00,,,0.00,Wunderground v.1.15,2013-08-05 04:35:00,
2013-08-05 00:39:00,52.2,49.7,30.16,North,354,0.0,0.0,91,0.00,,,0.00,Wunderground v.1.15,2013-08-05 04:39:00,
2013-08-05 00:44:00,52.1,50.1,30.16,North,354,0.0,0.0,93,0.00,,,0.00,Wunderground v.1.15,2013-08-05 04:44:00,
2013-08-05 00:50:00,52.2,50.2,30.16,NNW,330,0.0,0.0,93,0.00,,,0.00,Wunderground v.1.15,2013-08-05 04:50:00,
2013-08-05 00:55:00,52.2,50.2,30.16,WNW,300,0.0,0.0,93,0.00,,,0.00,Wunderground v.1.15,2013-08-05 04:55:00,
2013-08-05 01:00:00,52.2,50.2,30.16,WNW,300,0.0,0.0,93,0.00,,,0.00,Wunderground v.1.15,2013-08-05 05:00:00,
2013-08-05 01:10:00,52.4,50.1,30.16,North,349,0.0,1.0,92,0.00,,,0.00,Wunderground v.1.15,2013-08-05 05:10:00,
2013-08-05 01:15:00,52.3,50.0,30.16,NW,316,1.0,1.0,92,0.00,,,0.00,Wunderground v.1.15,2013-08-05 05:15:00,
2013-08-05 01:20:00,52.2,49.9,30.16,NW,316,1.0,1.0,92,0.00,,,0.00,Wunderground v.1.15,2013-08-05 05:20:00,
2013-08-05 01:25:00,52.0,50.0,30.16,NW,316,0.0,1.0,93,0.00,,,0.00,Wunderground v.1.15,2013-08-05 05:25:00,
2013-08-05 01:35:00,51.5,49.3,30.16,NW,316,0.0,0.0,92,0.00,,,0.00,Wunderground v.1.15,2013-08-05 05:35:00,
2013-08-05 01:40:00,51.1,49.1,30.16,NW,316,0.0,0.0,93,0.00,,,0.00,Wunderground v.1.15,2013-08-05 05:40:00,
2013-08-05 01:45:00,50.8,48.8,30.16,NW,316,0.0,0.0,93,0.00,,,0.00,Wunderground v.1.15,2013-08-05 05:45:00,
2013-08-05 01:50:00,50.7,48.7,30.16,NW,316,0.0,0.0,93,0.00,,,0.00,Wunderground v.1.15,2013-08-05 05:50:00,
2013-08-05 01:55:00,50.6,48.9,30.16,NW,316,0.0,0.0,94,0.00,,,0.00,Wunderground v.1.15,2013-08-05 05:55:00,
2013-08-05 02:00:00,50.3,48.4,30.15,NW,316,0.0,0.0,93,0.00,,,0.00,Wunderground v.1.15,2013-08-05 06:00:00,
2013-08-05 02:05:00,50.3,48.6,30.15,NW,316,0.0,0.0,94,0.00,,,0.00,Wunderground v.1.15,2013-08-05 06:05:00,
2013-08-05 02:15:00,50.9,48.9,30.15,NW,316,0.0,0.0,93,0.00,,,0.00,Wunderground v.1.15,2013-08-05 06:15:00,
2013-08-05 02:20:00,50.8,48.8,30.15,NW,316,0.0,0.0,93,0.00,,,0.00,Wunderground v.1.15,2013-08-05 06:20:00,
2013-08-05 02:25:00,50.4,48.5,30.15,NW,316,0.0,0.0,93,0.00,,,0.00,Wunderground v.1.15,2013-08-05 06:25:00,
2013-08-05 02:29:00,50.1,48.2,30.15,NW,316,0.0,0.0,93,0.00,,,0.00,Wunderground v.1.15,2013-08-05 06:29:00,
2013-08-05 02:35:00,49.8,47.9,30.15,NW,316,0.0,0.0,93,0.00,,,0.00,Wunderground v.1.15,2013-08-05 06:35:00,
2013-08-05 02:40:00,49.5,47.8,30.15,NW,316,0.0,0.0,94,0.00,,,0.00,Wunderground v.1.15,2013-08-05 06:40:00,
2013-08-05 02:45:00,49.4,48.0,30.15,NW,316,0.0,0.0,95,0.00,,,0.00,Wunderground v.1.15,2013-08-05 06:45:00,
2013-08-05 02:50:00,49.4,48.3,30.15,NW,316,0.0,0.0,96,0.00,,,0.00,Wunderground v.1.15,2013-08-05 06:50:00,
2013-08-05 03:00:00,49.8,48.7,30.15,NW,318,0.0,0.0,96,0.00,,,0.00,Wunderground v.1.15,2013-08-05 07:00:00,
2013-08-05 03:15:00,49.5,47.8,30.15,NW,316,0.0,0.0,94,0.00,,,0.00,Wunderground v.1.15,2013-08-05 07:15:00,
2013-08-05 03:20:00,49.5,48.1,30.15,NW,316,0.0,0.0,95,0.00,,,0.00,Wunderground v.1.15,2013-08-05 07:20:00,
2013-08-05 03:24:00,49.5,48.1,30.15,NW,316,0.0,0.0,95,0.00,,,0.00,Wunderground v.1.15,2013-08-05 07:24:00,
2013-08-05 03:30:00,49.4,48.0,30.15,NW,316,0.0,0.0,95,0.00,,,0.00,Wunderground v.1.15,2013-08-05 07:30:00,
2013-08-05 03:35:00,49.3,47.9,30.15,NW,316,0.0,0.0,95,0.00,,,0.00,Wunderground v.1.15,2013-08-05 07:35:00,
2013-08-05 03:39:00,49.2,47.8,30.15,NW,316,0.0,0.0,95,0.00,,,0.00,Wunderground v.1.15,2013-08-05 07:39:00,
2013-08-05 03:50:00,49.1,47.7,30.14,NW,316,0.0,0.0,95,0.00,,,0.00,Wunderground v.1.15,2013-08-05 07:50:00,
2013-08-05 03:55:00,49.1,47.7,30.14,NW,316,0.0,0.0,95,0.00,,,0.00,Wunderground v.1.15,2013-08-05 07:55:00,
2013-08-05 04:00:00,49.2,47.8,30.14,NW,316,0.0,0.0,95,0.00,,,0.00,Wunderground v.1.15,2013-08-05 08:00:00,
2013-08-05 04:10:00,48.9,47.5,30.14,NW,316,0.0,0.0,95,0.00,,,0.00,Wunderground v.1.15,2013-08-05 08:10:00,
2013-08-05 04:19:00,48.4,47.0,30.14,NW,316,0.0,0.0,95,0.00,,,0.00,Wunderground v.1.15,2013-08-05 08:19:00,
2013-08-05 04:25:00,48.4,47.3,30.14,NW,316,0.0,0.0,96,0.00,,,0.00,Wunderground v.1.15,2013-08-05 08:25:00,
2013-08-05 04:30:00,48.5,47.4,30.13,North,1,0.0,1.0,96,0.00,,,0.00,Wunderground v.1.15,2013-08-05 08:30:00,
2013-08-05 04:35:00,48.4,47.3,30.13,North,1,0.0,1.0,96,0.00,,,0.00,Wunderground v.1.15,2013-08-05 08:35:00,
2013-08-05 04:40:00,48.4,47.3,30.13,North,4,0.0,0.0,96,0.00,,,0.00,Wunderground v.1.15,2013-08-05 08:40:00,
2013-08-05 04:45:00,48.1,47.0,30.13,North,1,0.0,0.0,96,0.00,,,0.00,Wunderground v.1.15,2013-08-05 08:45:00,
2013-08-05 04:55:00,48.3,47.5,30.13,North,1,0.0,0.0,97,0.00,,,0.00,Wunderground v.1.15,2013-08-05 08:55:00,
2013-08-05 04:59:00,48.5,47.7,30.13,North,1,0.0,0.0,97,0.00,,,0.00,Wunderground v.1.15,2013-08-05 08:59:00,
2013-08-05 05:10:00,47.7,46.6,30.13,North,1,0.0,0.0,96,0.00,,,0.00,Wunderground v.1.15,2013-08-05 09:10:00,
2013-08-05 05:15:00,47.8,47.0,30.13,North,1,0.0,1.0,97,0.00,,,0.00,Wunderground v.1.15,2013-08-05 09:15:00,
2013-08-05 05:25:00,48.5,47.7,30.13,North,1,0.0,1.0,97,0.00,,,0.00,Wunderground v.1.15,2013-08-05 09:25:00,
2013-08-05 05:35:00,48.7,47.9,30.14,North,1,0.0,0.0,97,0.00,,,0.00,Wunderground v.1.15,2013-08-05 09:35:00,
2013-08-05 05:39:00,48.4,47.6,30.14,North,1,0.0,0.0,97,0.00,,,0.00,Wunderground v.1.15,2013-08-05 09:39:00,
2013-08-05 05:45:00,48.0,46.9,30.14,North,1,0.0,0.0,96,0.00,,,0.00,Wunderground v.1.15,2013-08-05 09:45:00,
2013-08-05 05:55:00,48.9,48.4,30.13,North,4,0.0,0.0,98,0.00,,,0.00,Wunderground v.1.15,2013-08-05 09:55:00,
2013-08-05 06:00:00,49.0,48.5,30.13,North,3,0.0,0.0,98,0.00,,,0.00,Wunderground v.1.15,2013-08-05 10:00:00,
2013-08-05 06:05:00,49.1,48.6,30.13,North,1,0.0,0.0,98,0.00,,,0.00,Wunderground v.1.15,2013-08-05 10:05:00,
2013-08-05 06:10:00,49.7,49.2,30.13,North,3,0.0,0.0,98,0.00,,,0.00,Wunderground v.1.15,2013-08-05 10:10:00,
2013-08-05 06:15:00,49.2,48.4,30.13,North,1,0.0,0.0,97,0.00,,,0.00,Wunderground v.1.15,2013-08-05 10:15:00,
2013-08-05 06:20:00,48.6,47.8,30.13,North,1,0.0,0.0,97,0.00,,,0.00,Wunderground v.1.15,2013-08-05 10:20:00,
2013-08-05 06:25:00,49.5,49.0,30.13,North,3,0.0,1.0,98,0.00,,,0.00,Wunderground v.1.15,2013-08-05 10:25:00,
2013-08-05 06:35:00,49.1,48.3,30.13,North,1,1.0,1.0,97,0.00,,,0.00,Wunderground v.1.15,2013-08-05 10:35:00,
2013-08-05 06:44:00,48.7,47.9,30.13,North,3,0.0,0.0,97,0.00,,,0.00,Wunderground v.1.15,2013-08-05 10:44:00,
2013-08-05 06:50:00,48.8,48.3,30.13,North,1,0.0,0.0,98,0.00,,,0.00,Wunderground v.1.15,2013-08-05 10:50:00,
2013-08-05 06:54:00,49.0,48.5,30.14,North,4,0.0,0.0,98,0.00,,,0.00,Wunderground v.1.15,2013-08-05 10:54:00,
2013-08-05 07:00:00,48.9,48.4,30.14,North,4,0.0,0.0,98,0.00,,,0.00,Wunderground v.1.15,2013-08-05 11:00:00,
2013-08-05 07:09:00,49.3,48.8,30.14,North,1,0.0,0.0,98,0.00,,,0.00,Wunderground v.1.15,2013-08-05 11:09:00,
2013-08-05 07:15:00,49.1,48.6,30.14,North,1,0.0,0.0,98,0.00,,,0.00,Wunderground v.1.15,2013-08-05 11:15:00,
2013-08-05 07:20:00,49.6,49.1,30.14,North,1,0.0,0.0,98,0.00,,,0.00,Wunderground v.1.15,2013-08-05 11:20:00,
2013-08-05 07:24:00,50.4,49.9,30.14,North,4,0.0,0.0,98,0.00,,,0.00,Wunderground v.1.15,2013-08-05 11:24:00,
2013-08-05 07:35:00,51.0,50.5,30.14,North,1,0.0,0.0,98,0.00,,,0.00,Wunderground v.1.15,2013-08-05 11:35:00,
2013-08-05 07:39:00,51.2,50.7,30.14,North,1,0.0,0.0,98,0.00,,,0.00,Wunderground v.1.15,2013-08-05 11:39:00,
2013-08-05 07:45:00,51.5,51.0,30.14,North,1,0.0,0.0,98,0.00,,,0.00,Wunderground v.1.15,2013-08-05 11:45:00,
2013-08-05 07:50:00,51.5,51.0,30.13,North,4,0.0,0.0,98,0.00,,,0.00,Wunderground v.1.15,2013-08-05 11:50:00,
2013-08-05 08:00:00,52.6,52.1,30.13,North,1,0.0,0.0,98,0.00,,,0.00,Wunderground v.1.15,2013-08-05 12:00:00,
2013-08-05 08:10:00,54.6,54.0,30.13,ESE,117,1.0,1.0,98,0.00,,,0.00,Wunderground v.1.15,2013-08-05 12:10:00,
2013-08-05 08:20:00,55.8,54.1,30.14,SE,134,1.0,1.0,94,0.00,,,0.00,Wunderground v.1.15,2013-08-05 12:20:00,
2013-08-05 08:29:00,57.0,55.0,30.13,East,89,1.0,2.0,93,0.00,,,0.00,Wunderground v.1.15,2013-08-05 12:29:00,
2013-08-05 08:35:00,57.2,54.0,30.13,ESE,122,1.0,2.0,89,0.00,,,0.00,Wunderground v.1.15,2013-08-05 12:35:00,
2013-08-05 08:40:00,57.3,54.4,30.14,ESE,118,1.0,1.0,90,0.00,,,0.00,Wunderground v.1.15,2013-08-05 12:40:00,
2013-08-05 08:49:00,58.5,55.3,30.14,SE,139,0.0,0.0,89,0.00,,,0.00,Wunderground v.1.15,2013-08-05 12:49:00,
2013-08-05 08:55:00,58.8,55.3,30.14,SE,129,0.0,1.0,88,0.00,,,0.00,Wunderground v.1.15,2013-08-05 12:55:00,
2013-08-05 08:59:00,58.8,55.3,30.14,SSE,148,1.0,1.0,88,0.00,,,0.00,Wunderground v.1.15,2013-08-05 12:59:00,
2013-08-05 09:10:00,59.4,55.5,30.14,SSE,159,1.0,1.0,87,0.00,,,0.00,Wunderground v.1.15,2013-08-05 13:10:00,
2013-08-05 09:15:00,59.7,54.2,30.14,SSE,167,1.0,1.0,82,0.00,,,0.00,Wunderground v.1.15,2013-08-05 13:15:00,
2013-08-05 09:20:00,60.1,54.9,30.14,SSE,153,1.0,1.0,83,0.00,,,0.00,Wunderground v.1.15,2013-08-05 13:20:00,
2013-08-05 09:24:00,60.4,54.9,30.13,SE,134,1.0,2.0,82,0.00,,,0.00,Wunderground v.1.15,2013-08-05 13:24:00,
2013-08-05 09:30:00,60.7,54.5,30.13,ESE,118,1.0,1.0,80,0.00,,,0.00,Wunderground v.1.15,2013-08-05 13:30:00,
2013-08-05 09:40:00,61.4,55.5,30.14,SSE,166,1.0,1.0,81,0.00,,,0.00,Wunderground v.1.15,2013-08-05 13:40:00,
2013-08-05 09:45:00,61.6,54.7,30.13,SE,131,1.0,1.0,78,0.00,,,0.00,Wunderground v.1.15,2013-08-05 13:45:00,
2013-08-05 09:49:00,62.0,55.8,30.13,ESE,118,1.0,1.0,80,0.00,,,0.00,Wunderground v.1.15,2013-08-05 13:49:00,
2013-08-05 09:55:00,62.2,55.3,30.13,ESE,118,0.0,1.0,78,0.00,,,0.00,Wunderground v.1.15,2013-08-05 13:55:00,
2013-08-05 10:00:00,63.0,56.7,30.13,SSE,160,0.0,0.0,80,0.00,,,0.00,Wunderground v.1.15,2013-08-05 14:00:00,
2013-08-05 10:05:00,64.0,56.6,30.13,South,169,0.0,0.0,77,0.00,,,0.00,Wunderground v.1.15,2013-08-05 14:05:00,
2013-08-05 10:10:00,64.5,55.3,30.13,SE,131,1.0,1.0,72,0.00,,,0.00,Wunderground v.1.15,2013-08-05 14:10:00,
2013-08-05 10:15:00,64.8,55.2,30.13,SSE,153,1.0,2.0,71,0.00,,,0.00,Wunderground v.1.15,2013-08-05 14:15:00,
2013-08-05 10:20:00,65.2,54.8,30.13,ESE,118,1.0,1.0,69,0.00,,,0.00,Wunderground v.1.15,2013-08-05 14:20:00,
2013-08-05 10:25:00,65.3,54.9,30.13,South,179,1.0,1.0,69,0.00,,,0.00,Wunderground v.1.15,2013-08-05 14:25:00,
2013-08-05 10:29:00,65.7,55.6,30.13,SE,128,1.0,1.0,70,0.00,,,0.00,Wunderground v.1.15,2013-08-05 14:29:00,
2013-08-05 10:40:00,65.6,53.9,30.13,South,176,1.0,1.0,66,0.00,,,0.00,Wunderground v.1.15,2013-08-05 14:40:00,
2013-08-05 10:44:00,65.8,54.5,30.13,SSE,162,1.0,1.0,67,0.00,,,0.00,Wunderground v.1.15,2013-08-05 14:44:00,
2013-08-05 10:50:00,66.0,53.9,30.13,SE,131,0.0,0.0,65,0.00,,,0.00,Wunderground v.1.15,2013-08-05 14:50:00,
2013-08-05 10:54:00,66.0,53.9,30.13,SSE,156,0.0,0.0,65,0.00,,,0.00,Wunderground v.1.15,2013-08-05 14:54:00,
2013-08-05 11:00:00,66.0,54.7,30.13,SE,128,0.0,0.0,67,0.00,,,0.00,Wunderground v.1.15,2013-08-05 15:00:00,
2013-08-05 11:10:00,65.8,54.9,30.13,ESE,120,0.0,0.0,68,0.00,,,0.00,Wunderground v.1.15,2013-08-05 15:10:00,
2013-08-05 11:20:00,65.7,55.2,30.12,ESE,110,1.0,1.0,69,0.00,,,0.00,Wunderground v.1.15,2013-08-05 15:20:00,
2013-08-05 11:30:00,65.8,55.7,30.11,SE,128,1.0,1.0,70,0.00,,,0.00,Wunderground v.1.15,2013-08-05 15:30:00,
2013-08-05 11:34:00,66.4,55.1,30.11,South,183,1.0,2.0,67,0.00,,,0.00,Wunderground v.1.15,2013-08-05 15:34:00,
2013-08-05 11:40:00,66.8,55.1,30.11,SSE,157,1.0,1.0,66,0.00,,,0.00,Wunderground v.1.15,2013-08-05 15:40:00,
2013-08-05 11:45:00,66.9,53.9,30.11,SE,128,2.0,2.0,63,0.00,,,0.00,Wunderground v.1.15,2013-08-05 15:45:00,
2013-08-05 11:54:00,67.0,55.3,30.10,SE,131,1.0,2.0,66,0.00,,,0.00,Wunderground v.1.15,2013-08-05 15:54:00,
2013-08-05 12:00:00,67.2,55.9,30.10,ESE,123,1.0,1.0,67,0.00,,,0.00,Wunderground v.1.15,2013-08-05 16:00:00,
2013-08-05 12:10:00,67.9,56.5,30.10,South,187,2.0,2.0,67,0.00,,,0.00,Wunderground v.1.15,2013-08-05 16:10:00,
2013-08-05 12:15:00,68.2,55.1,30.10,South,174,2.0,2.0,63,0.00,,,0.00,Wunderground v.1.15,2013-08-05 16:15:00,
2013-08-05 12:25:00,68.6,54.6,30.09,South,179,2.0,3.0,61,0.00,,,0.00,Wunderground v.1.15,2013-08-05 16:25:00,
2013-08-05 12:35:00,68.7,54.7,30.08,SSE,166,3.0,3.0,61,0.00,,,0.00,Wunderground v.1.15,2013-08-05 16:35:00,
2013-08-05 12:45:00,68.9,56.2,30.07,SSW,194,2.0,3.0,64,0.00,,,0.00,Wunderground v.1.15,2013-08-05 16:45:00,
2013-08-05 12:49:00,69.2,56.1,30.06,SE,138,3.0,4.0,63,0.00,,,0.00,Wunderground v.1.15,2013-08-05 16:49:00,
2013-08-05 12:55:00,69.7,57.0,30.07,SE,127,3.0,4.0,64,0.00,,,0.00,Wunderground v.1.15,2013-08-05 16:55:00,
2013-08-05 13:05:00,69.9,56.7,30.06,South,176,3.0,4.0,63,0.00,,,0.00,Wunderground v.1.15,2013-08-05 17:05:00,
2013-08-05 13:10:00,70.6,56.9,30.05,South,187,3.0,4.0,62,0.00,,,0.00,Wunderground v.1.15,2013-08-05 17:10:00,
2013-08-05 13:14:00,71.0,55.9,30.05,South,189,4.0,5.0,59,0.00,,,0.00,Wunderground v.1.15,2013-08-05 17:14:00,
2013-08-05 13:20:00,71.5,57.8,30.05,SSE,166,5.0,7.0,62,0.00,,,0.00,Wunderground v.1.15,2013-08-05 17:20:00,
2013-08-05 13:25:00,71.7,57.1,30.05,South,189,4.0,7.0,60,0.00,,,0.00,Wunderground v.1.15,2013-08-05 17:25:00,
2013-08-05 13:29:00,71.8,57.2,30.05,SSW,203,4.0,4.0,60,0.00,,,0.00,Wunderground v.1.15,2013-08-05 17:29:00,
2013-08-05 13:34:00,71.6,57.0,30.06,SSW,207,4.0,4.0,60,0.00,,,0.00,Wunderground v.1.15,2013-08-05 17:34:00,
2013-08-05 13:45:00,71.6,58.8,30.06,SSE,167,4.0,4.0,64,0.00,,,0.00,Wunderground v.1.15,2013-08-05 17:45:00,
2013-08-05 13:49:00,71.5,58.7,30.06,WSW,239,3.0,3.0,64,0.00,,,0.00,Wunderground v.1.15,2013-08-05 17:49:00,
2013-08-05 13:55:00,71.3,58.5,30.07,WSW,255,2.0,3.0,64,0.00,,,0.00,Wunderground v.1.15,2013-08-05 17:55:00,
2013-08-05 14:00:00,71.1,58.7,30.05,South,181,3.0,8.0,65,0.00,,,0.00,Wunderground v.1.15,2013-08-05 18:00:00,
2013-08-05 14:10:00,70.8,58.9,30.05,SW,226,3.0,3.0,66,0.00,,,0.00,Wunderground v.1.15,2013-08-05 18:10:00,
2013-08-05 14:15:00,70.7,58.8,30.05,SSE,152,2.0,3.0,66,0.00,,,0.00,Wunderground v.1.15,2013-08-05 18:15:00,
2013-08-05 14:20:00,70.8,59.3,30.05,SSW,197,2.0,2.0,67,0.00,,,0.00,Wunderground v.1.15,2013-08-05 18:20:00,
2013-08-05 14:25:00,71.0,59.9,30.05,SW,225,2.0,2.0,68,0.00,,,0.00,Wunderground v.1.15,2013-08-05 18:25:00,
2013-08-05 14:30:00,71.2,60.5,30.05,WSW,238,2.0,2.0,69,0.00,,,0.00,Wunderground v.1.15,2013-08-05 18:30:00,
2013-08-05 14:35:00,71.7,60.2,30.05,South,187,2.0,2.0,67,0.00,,,0.00,Wunderground v.1.15,2013-08-05 18:35:00,
2013-08-05 14:40:00,72.2,59.8,30.04,South,173,2.0,2.0,65,0.00,,,0.00,Wunderground v.1.15,2013-08-05 18:40:00,
2013-08-05 14:50:00,73.0,61.0,30.04,WSW,239,2.0,5.0,66,0.00,,,0.00,Wunderground v.1.15,2013-08-05 18:50:00,
2013-08-05 14:55:00,72.6,60.2,30.04,SSW,198,3.0,5.0,65,0.00,,,0.00,Wunderground v.1.15,2013-08-05 18:55:00,
2013-08-05 15:00:00,72.3,60.7,30.04,SW,214,3.0,3.0,67,0.00,,,0.00,Wunderground v.1.15,2013-08-05 19:00:00,
2013-08-05 15:10:00,71.9,61.2,30.04,SSW,194,2.0,2.0,69,0.00,,,0.00,Wunderground v.1.15,2013-08-05 19:10:00,
2013-08-05 15:20:00,71.4,60.7,30.04,South,172,2.0,2.0,69,0.00,,,0.00,Wunderground v.1.15,2013-08-05 19:20:00,
2013-08-05 15:25:00,71.4,61.1,30.04,WSW,247,2.0,3.0,70,0.00,,,0.00,Wunderground v.1.15,2013-08-05 19:25:00,
2013-08-05 15:30:00,71.5,61.2,30.04,SSW,210,2.0,2.0,70,0.00,,,0.00,Wunderground v.1.15,2013-08-05 19:30:00,
2013-08-05 15:35:00,72.0,61.7,30.04,SSW,197,2.0,2.0,70,0.00,,,0.00,Wunderground v.1.15,2013-08-05 19:35:00,
2013-08-05 15:40:00,72.0,61.3,30.04,SSW,201,3.0,5.0,69,0.00,,,0.00,Wunderground v.1.15,2013-08-05 19:40:00,
2013-08-05 15:45:00,71.9,62.0,30.04,SSW,210,3.0,5.0,71,0.00,,,0.00,Wunderground v.1.15,2013-08-05 19:45:00,
2013-08-05 15:55:00,71.4,61.1,30.03,SSW,204,3.0,3.0,70,0.00,,,0.00,Wunderground v.1.15,2013-08-05 19:55:00,
2013-08-05 16:00:00,71.3,61.8,30.03,SW,215,2.0,2.0,72,0.00,,,0.00,Wunderground v.1.15,2013-08-05 20:00:00,
2013-08-05 16:10:00,71.1,62.0,30.03,South,188,2.0,2.0,73,0.00,,,0.00,Wunderground v.1.15,2013-08-05 20:10:00,
2013-08-05 16:15:00,71.0,61.5,30.03,WSW,248,2.0,3.0,72,0.00,,,0.00,Wunderground v.1.15,2013-08-05 20:15:00,
2013-08-05 16:20:00,71.0,61.9,30.03,WSW,245,1.0,1.0,73,0.00,,,0.00,Wunderground v.1.15,2013-08-05 20:20:00,
2013-08-05 16:25:00,71.1,62.4,30.03,SSE,162,1.0,1.0,74,0.00,,,0.00,Wunderground v.1.15,2013-08-05 20:25:00,
2013-08-05 16:35:00,71.0,61.5,30.02,SE,126,2.0,3.0,72,0.00,,,0.00,Wunderground v.1.15,2013-08-05 20:35:00,
2013-08-05 16:40:00,71.0,61.5,30.03,SSW,201,2.0,2.0,72,0.00,,,0.00,Wunderground v.1.15,2013-08-05 20:40:00,
2013-08-05 16:45:00,71.1,62.4,30.03,SSW,198,1.0,2.0,74,0.00,,,0.00,Wunderground v.1.15,2013-08-05 20:45:00,
2013-08-05 16:50:00,71.1,62.0,30.03,South,172,1.0,2.0,73,0.00,,,0.00,Wunderground v.1.15,2013-08-05 20:50:00,
2013-08-05 16:55:00,71.1,62.4,30.02,SSE,166,1.0,2.0,74,0.00,,,0.00,Wunderground v.1.15,2013-08-05 20:55:00,
2013-08-05 17:05:00,71.0,62.3,30.02,South,169,1.0,1.0,74,0.00,,,0.00,Wunderground v.1.15,2013-08-05 21:05:00,
2013-08-05 17:10:00,71.1,62.4,30.02,SE,145,1.0,1.0,74,0.00,,,0.00,Wunderground v.1.15,2013-08-05 21:10:00,
2013-08-05 17:15:00,71.1,62.4,30.02,SE,131,1.0,1.0,74,0.00,,,0.00,Wunderground v.1.15,2013-08-05 21:15:00,
2013-08-05 17:25:00,70.9,62.2,30.02,ESE,113,2.0,3.0,74,0.00,,,0.00,Wunderground v.1.15,2013-08-05 21:25:00,
2013-08-05 17:30:00,70.7,62.4,30.02,SE,138,3.0,3.0,75,0.00,,,0.00,Wunderground v.1.15,2013-08-05 21:30:00,
2013-08-05 17:40:00,70.3,62.7,30.02,SE,124,2.0,2.0,77,0.00,,,0.00,Wunderground v.1.15,2013-08-05 21:40:00,
2013-08-05 17:45:00,70.3,62.7,30.02,SSE,158,1.0,2.0,77,0.00,,,0.00,Wunderground v.1.15,2013-08-05 21:45:00,
2013-08-05 17:50:00,70.2,63.0,30.01,SE,142,1.0,1.0,78,0.00,,,0.00,Wunderground v.1.15,2013-08-05 21:50:00,
2013-08-05 17:55:00,70.2,63.0,30.01,SE,139,1.0,1.0,78,0.00,,,0.00,Wunderground v.1.15,2013-08-05 21:55:00,
2013-08-05 18:00:00,70.4,62.8,30.01,South,172,2.0,2.0,77,0.00,,,0.00,Wunderground v.1.15,2013-08-05 22:00:00,
2013-08-05 18:10:00,70.5,63.3,30.01,SSW,212,1.0,3.0,78,0.00,,,0.00,Wunderground v.1.15,2013-08-05 22:10:00,
2013-08-05 18:15:00,70.4,62.8,30.01,SSW,202,2.0,3.0,77,0.00,,,0.00,Wunderground v.1.15,2013-08-05 22:15:00,
2013-08-05 18:20:00,70.4,63.2,30.01,SSW,208,2.0,2.0,78,0.00,,,0.00,Wunderground v.1.15,2013-08-05 22:20:00,
2013-08-05 18:30:00,70.5,62.9,30.01,SSE,160,2.0,2.0,77,0.00,,,0.00,Wunderground v.1.15,2013-08-05 22:30:00,
2013-08-05 18:35:00,70.5,62.9,30.01,SSE,160,2.0,2.0,77,0.00,,,0.00,Wunderground v.1.15,2013-08-05 22:35:00,
2013-08-05 18:40:00,70.5,62.9,30.00,South,172,1.0,1.0,77,0.00,,,0.00,Wunderground v.1.15,2013-08-05 22:40:00,
2013-08-05 18:50:00,70.3,62.7,30.00,SSE,164,1.0,1.0,77,0.00,,,0.00,Wunderground v.1.15,2013-08-05 22:50:00,
2013-08-05 18:55:00,70.1,62.9,30.00,SSE,163,1.0,2.0,78,0.00,,,0.00,Wunderground v.1.15,2013-08-05 22:55:00,
2013-08-05 19:05:00,69.9,63.1,30.00,South,175,0.0,1.0,79,0.00,,,0.00,Wunderground v.1.15,2013-08-05 23:05:00,
2013-08-05 19:10:00,69.9,63.1,29.99,SSE,160,0.0,0.0,79,0.00,,,0.00,Wunderground v.1.15,2013-08-05 23:10:00,
2013-08-05 19:15:00,69.9,63.1,29.99,ESE,113,1.0,2.0,79,0.00,,,0.00,Wunderground v.1.15,2013-08-05 23:15:00,
2013-08-05 19:20:00,69.9,63.1,29.99,South,186,1.0,1.0,79,0.00,,,0.00,Wunderground v.1.15,2013-08-05 23:20:00,
2013-08-05 19:30:00,70.0,62.8,29.99,South,174,1.0,2.0,78,0.00,,,0.00,Wunderground v.1.15,2013-08-05 23:30:00,
2013-08-05 19:35:00,70.0,62.8,29.99,South,179,2.0,2.0,78,0.00,,,0.00,Wunderground v.1.15,2013-08-05 23:35:00,
2013-08-05 19:40:00,69.9,62.7,29.99,SSW,193,2.0,2.0,78,0.00,,,0.00,Wunderground v.1.15,2013-08-05 23:40:00,
2013-08-05 19:45:00,69.8,63.0,29.99,SE,128,1.0,2.0,79,0.00,,,0.00,Wunderground v.1.15,2013-08-05 23:45:00,
2013-08-05 19:55:00,69.6,63.2,29.99,SE,131,1.0,1.0,80,0.00,,,0.00,Wunderground v.1.15,2013-08-05 23:55:00,
2013-08-05 20:00:00,69.5,63.8,29.98,SE,128,1.0,1.0,82,0.00,,,0.00,Wunderground v.1.15,2013-08-06 00:00:00,
2013-08-05 20:05:00,69.5,64.1,29.98,ESE,104,1.0,2.0,83,0.00,,,0.00,Wunderground v.1.15,2013-08-06 00:05:00,
2013-08-05 20:10:00,69.5,63.8,29.98,SE,131,2.0,2.0,82,0.00,,,0.00,Wunderground v.1.15,2013-08-06 00:10:00,
2013-08-05 20:20:00,69.8,63.7,29.98,SSE,163,1.0,1.0,81,0.00,,,0.00,Wunderground v.1.15,2013-08-06 00:20:00,
2013-08-05 20:25:00,69.7,63.3,29.98,SE,135,2.0,2.0,80,0.00,,,0.00,Wunderground v.1.15,2013-08-06 00:25:00,
2013-08-05 20:30:00,69.5,63.1,29.97,East,98,2.0,3.0,80,0.00,,,0.00,Wunderground v.1.15,2013-08-06 00:30:00,
2013-08-05 20:40:00,69.0,62.9,29.97,SSE,155,2.0,2.0,81,0.00,,,0.00,Wunderground v.1.15,2013-08-06 00:40:00,
2013-08-05 20:45:00,68.9,62.8,29.97,SSE,160,1.0,2.0,81,0.00,,,0.00,Wunderground v.1.15,2013-08-06 00:45:00,
2013-08-05 20:50:00,68.6,62.5,29.97,SE,134,2.0,2.0,81,0.00,,,0.00,Wunderground v.1.15,2013-08-06 00:50:00,
2013-08-05 20:55:00,68.3,62.6,29.97,ESE,122,2.0,2.0,82,0.00,,,0.00,Wunderground v.1.15,2013-08-06 00:55:00,
2013-08-05 21:00:00,67.9,62.5,29.97,SSE,148,1.0,2.0,83,0.00,,,0.00,Wunderground v.1.15,2013-08-06 01:00:00,
2013-08-05 21:15:00,67.6,62.6,29.97,SSE,155,1.0,1.0,84,0.00,,,0.00,Wunderground v.1.15,2013-08-06 01:15:00,
2013-08-05 21:20:00,67.6,62.6,29.97,South,170,1.0,1.0,84,0.00,,,0.00,Wunderground v.1.15,2013-08-06 01:20:00,
2013-08-05 21:25:00,67.5,62.5,29.98,South,174,1.0,1.0,84,0.00,,,0.00,Wunderground v.1.15,2013-08-06 01:25:00,
2013-08-05 21:35:00,67.4,62.7,29.97,SSE,160,1.0,3.0,85,0.00,,,0.00,Wunderground v.1.15,2013-08-06 01:35:00,
2013-08-05 21:40:00,67.2,62.5,29.98,South,173,1.0,1.0,85,0.00,,,0.00,Wunderground v.1.15,2013-08-06 01:40:00,
2013-08-05 21:45:00,67.2,62.5,29.98,South,177,1.0,1.0,85,0.00,,,0.00,Wunderground v.1.15,2013-08-06 01:45:00,
2013-08-05 21:50:00,67.3,62.6,29.98,SSW,195,1.0,1.0,85,0.00,,,0.00,Wunderground v.1.15,2013-08-06 01:50:00,
2013-08-05 22:00:00,67.2,62.5,29.98,SW,231,1.0,1.0,85,0.00,,,0.00,Wunderground v.1.15,2013-08-06 02:00:00,
2013-08-05 22:05:00,67.1,62.4,29.98,WSW,244,1.0,2.0,85,0.00,,,0.00,Wunderground v.1.15,2013-08-06 02:05:00,
2013-08-05 22:15:00,67.1,62.1,29.98,SSE,156,1.0,2.0,84,0.00,,,0.00,Wunderground v.1.15,2013-08-06 02:15:00,
2013-08-05 22:20:00,67.0,62.0,29.98,WSW,239,1.0,1.0,84,0.00,,,0.00,Wunderground v.1.15,2013-08-06 02:20:00,
2013-08-05 22:25:00,66.9,61.9,29.98,WSW,244,1.0,1.0,84,0.00,,,0.00,Wunderground v.1.15,2013-08-06 02:25:00,
2013-08-05 22:35:00,66.8,61.8,29.98,WSW,245,1.0,1.0,84,0.00,,,0.00,Wunderground v.1.15,2013-08-06 02:35:00,
2013-08-05 22:40:00,66.8,61.8,29.98,West,260,1.0,1.0,84,0.00,,,0.00,Wunderground v.1.15,2013-08-06 02:40:00,
2013-08-05 22:45:00,66.7,61.7,29.98,SW,221,0.0,2.0,84,0.00,,,0.00,Wunderground v.1.15,2013-08-06 02:45:00,
2013-08-05 22:50:00,66.7,61.4,29.98,WSW,239,1.0,1.0,83,0.00,,,0.00,Wunderground v.1.15,2013-08-06 02:50:00,
2013-08-05 22:55:00,66.6,61.3,29.98,SW,219,1.0,1.0,83,0.00,,,0.00,Wunderground v.1.15,2013-08-06 02:55:00,
2013-08-05 23:05:00,66.4,61.4,29.98,SW,226,1.0,1.0,84,0.00,,,0.00,Wunderground v.1.15,2013-08-06 03:05:00,
2013-08-05 23:15:00,66.2,61.2,29.98,WSW,242,1.0,2.0,84,0.00,,,0.00,Wunderground v.1.15,2013-08-06 03:15:00,
2013-08-05 23:20:00,66.2,61.2,29.98,SW,226,1.0,1.0,84,0.00,,,0.00,Wunderground v.1.15,2013-08-06 03:20:00,
2013-08-05 23:25:00,66.1,61.1,29.98,SW,226,0.0,1.0,84,0.00,,,0.00,Wunderground v.1.15,2013-08-06 03:25:00,
2013-08-05 23:35:00,65.9,60.9,29.98,ESE,113,0.0,1.0,84,0.00,,,0.00,Wunderground v.1.15,2013-08-06 03:35:00,
2013-08-05 23:40:00,65.8,61.2,29.98,East,101,1.0,1.0,85,0.00,,,0.00,Wunderground v.1.15,2013-08-06 03:40:00,